BEIDOU 20 (C18)

Last updated on Aug. 15, 2020, 5:35 a.m. UTC

1 40938U 15053A   20227.40940943 -.00000090  00000-0  00000-0 0  9994
2 40938  52.5298 283.5714 0051952 190.2071  91.6696  1.00259774 17975
UTC
Height (km)
Latitude
Longitude
Inclination
Orbital Period
UTC large
Height (km)
Speed (km/s)
/
Latitude / Longitude
Inclination (degrees)
Orbital Period (minutes)
Azimuth
Elevation
Range (km)
Doppler Factor
iOS Compass Heading
iOS Angle

Next 30 passes for location: Hong Kong

Rise time Rise Azimuth (degrees) Set time Set Azimuth (degrees) Duration Max altitude (degrees)

No matching passes for this satellites